Starlink 30372

operational
NORAD ID: 57789 Int'l Des: 2023-134 Owner: SPXS Country: US Constellation: starlink
LEOCIRCULAR

Starlink 30372について

説明を読み込み中...

リアルタイム位置

3D地球を読み込み中...

次回通過

高度履歴

Altitude vs Time

uPlot chart will show altitude changes over time

軌道要素

1 57789U 23134U 25306.08995710 .00001502 00000-0 64103-4 0 9990
2 57789 43.0048 78.9926 0001794 274.1092 85.9555 15.27578268121354
Epoch: Nov 2, 2025 • Age: 36 hours

現在のステータス

高度 495.2 km
速度 7.62 km/s
衛星直下点 -43.16°S, 89.03°E
打ち上げ日 Sep 4, 2023
運用期間 2.1 years
タイプ internet

技術仕様

分類 Payload
質量 730.00 kg
乾燥質量 700.00 kg
総質量 730.00 kg
長さ 0.30 m
直径 4.10 m
スパン 29.00 m
形状 Box + pan
製造者 SPXS
バスタイプ Starlink V2M
フェーズステータス In Orbit
所有者/国 SPXS/US

大規模コンステレーション

Loading constellations...